Regional Weather Roundup
Issued by NWS

Current Version | Previous Version | Text Only | Print | Product List | Glossary On
Versions: 1 2 3 4 5 6 7 8 9 10 11 12 13 14 15 16 17 18 19 20 21 22 23 24 25 26 27 28 29 30 31 32 33 34 35 36 37 38 39 40 41 42 43 44 45 46 47 48 49 50
000
ASUS45 KBOI 211710
RWRID
WEATHER ROUNDUP FOR IDAHO
NATIONAL WEATHER SERVICE BOISE ID
1100 AM MDT TUE OCT 21 2014

NOTE: "FAIR" INDICATES FEW OR NO CLOUDS BELOW 12000 FEET
WITH NO SIGNIFICANT WEATHER AND/OR OBSTRUCTIONS TO VISIBILITY

IDZ012-014-211800-
SOUTHWEST IDAHO


CITY           SKY/WX    TMP DP  RH WIND       PRES   REMARKS
BOISE          CLOUDY    48  45  87 SE3       30.02R
CALDWELL       CLOUDY    52  39  62 NW5       30.03R
MOUNTAIN HOME  PTSUNNY   50  46  87 W7        30.02R
$$

IDZ016-017-211800-
SOUTHCENTRAL IDAHO


CITY           SKY/WX    TMP DP  RH WIND       PRES   REMARKS
BURLEY         SUNNY     47  39  74 SW5       30.03R
JEROME         MOSUNNY   48  39  71 S12       30.03R
TWIN FALLS     MOSUNNY   53  35  50 SW28G33   30.02R
$$

IDZ019>023-211800-
SOUTHEAST IDAHO


CITY           SKY/WX    TMP DP  RH WIND       PRES   REMARKS
IDAHO FALLS    PTSUNNY   47  37  68 S28G36    29.99S
POCATELLO      LGT RAIN  45  38  76 S14       30.04R
REXBURG        CLOUDY    44  37  76 S16G24    29.99R
$$

IDZ006-010-011-018-031-032-211800-
CENTRAL IDAHO MOUNTAINS


CITY           SKY/WX    TMP DP  RH WIND       PRES   REMARKS
MCCALL         LGT RAIN  40  38  93 S5        29.96R
HAILEY         PTSUNNY   45  36  70 S9G18     30.01R
STANLEY          N/A     37  35  92 SE8       29.95F WCI  31
SALMON         CLOUDY    46  43  87 NE6       29.88R
CHALLIS        CLOUDY    45  40  82 S8        29.90R
$$

IDZ002-004-006-007-026-211800-
NORTHERN IDAHO


CITY           SKY/WX    TMP DP  RH WIND       PRES   REMARKS
LEWISTON       PTSUNNY   54  50  86 CALM      29.93S
LOWELL           N/A     51  49  92 CALM      29.96R
COEUR D`ALENE  PTSUNNY   52  45  76 W12       29.89S
MULLAN PASS    LGT RAIN  36  36 100 VRB3      29.88R VSB 1/4
$$



USA.gov is the U.S. government's official web portal to all federal, state and local government web resources and services.